Tracking 30692 objects as of 16-Jun-2025
HD Live streaming from Space Station
objects crossing your sky now

STARLINK-4536

Track STARLINK-4536 now!
10-day predictions
STARLINK-4536 is classified as:


NORAD ID: 53783
Int'l Code: 2022-111L
Perigee: 546.0 km
Apogee: 547.8 km
Inclination: 53.2 °
Period: 95.4 minutes
Semi major axis: 6917 km
RCS: Unknown
Launch date: September 11, 2022
Source: United States (US)
Launch site: AIR FORCE EASTERN TEST RANGE (AFETR)
Your satellite tracking list
Your tracking list is empty




NASA's NSSDC Master Catalog

Two Line Element Set (TLE):
1 53783U 22111L   25167.31413534  .00000101  00000-0  24456-4 0  9995
2 53783  53.2193  29.8444 0001255  85.2033 274.9102 15.08833195153485
Source of the keplerian elements: AFSPC